Location: Sternwarte Zollern-Alb
(48.2880°N, 8.6780°E)
Time: 02:52:55
(UTC+02:00)

ISS - Pass Details

Date: 29 April 2026
Orbit: 414 x 424 km, 51.6° (Epoch: 19 May)

Event Time Altitude Azimuth Distance (km) Brightness Sun altitude
Exits shadow 03:15:01 45° 72° (ENE) 582 -2.8 -22.5°
Drops below altitude 10° 03:17:27 10° 69° (ENE) 1,501 -0.3 -22.3°
Sets 03:19:33 0° 68° (ENE) 2,369 0.9 -22.1°
